Weather Roundup
Issued by NWS Chicago, IL

Home | Current Version | Previous Version | Text Only | Print | Product List | Glossary Off
Versions: 1 2 3 4 5 6 7 8 9 10 11 12 13 14 15 16 17 18 19 20 21 22 23 24 25 26 27 28 29 30 31 32 33 34 35 36 37 38 39 40 41 42 43 44 45 46 47 48 49 50

513
NZUS59 KLOT 222309
HRRLOT

CHICAGO AREA WEATHER ROUNDUP
NATIONAL WEATHER SERVICE CHICAGO/ROMEOVILLE IL
600 PM CDT TUE AUG 22 2017

NOTE: "FAIR" INDICATES FEW OR NO CLOUDS BELOW 12,000 FEET WITH NO
SIGNIFICANT WEATHER AND/OR OBSTRUCTIONS TO VISIBILITY.

* THESE STATIONS ARE NOT UNDER NWS QUALITY CONTROL. THEY ALSO MAY NOT
  REPORT WEATHER SUCH AS PRECIPITATION OR FOG.

ILZ005-006-012>014-019>023-230000-
NORTHEAST ILLINOIS

CITY           SKY/WX    TMP DP  RH WIND       PRES   REMARKS
OHARE          MOSUNNY   78  50  37 NW15G25   29.93R
MIDWAY         MOSUNNY   78  51  38 NW13      29.92R
AURORA         SUNNY     73  56  54 NW12      29.96R
LANSING*       MOSUNNY   77  51  39 NW10G18   29.92R
JOLIET*        SUNNY     77  54  44 NW12G17   29.95R
WAUKEGAN       MOSUNNY   74  50  42 NW9G22    29.93R
DUPAGE AIRPORT MOSUNNY   76  53  44 NW14      29.94R
WHEELING       SUNNY     76  51  41 NW15G23   29.95R
MORRIS*        SUNNY     74  57  54 NW7       29.95R
LEWIS AIRPORT* MOSUNNY   74  52  45 NW14G21   29.94S
NORTHERLY ISL    N/A     77  46  33 NW16        N/A
$$

WIZ051-052-058>065-066-070>072-230000-
SOUTHEAST WISCONSIN

CITY           SKY/WX    TMP DP  RH WIND       PRES   REMARKS
MILWAUKEE      MOSUNNY   75  49  39 NW13      29.93R
KENOSHA*       SUNNY     75  49  39 NW14G22   29.94R
RACINE*        MOSUNNY   75  50  41 NW16      29.94R
WAUKESHA       MOSUNNY   70  48  46 NW17G23   29.96R
WEST BEND      MOSUNNY   72  45  37 NW15G24   29.94S
$$

INZ001>003-010>013-019-020-230000-
NORTHWEST INDIANA

CITY           SKY/WX    TMP DP  RH WIND       PRES   REMARKS
GARY*          MOSUNNY   79  57  47 NW10      29.92R HX  80
MICHIGAN CITY* NOT AVBL
RENSSELAER*    NOT AVBL
VALPARAISO     PTSUNNY   75  59  57 N8G17     29.93R
$$

LMZ740>746-230000-
SOUTHERN LAKE MICHIGAN

STATION/POSITION TIME  SKY/WX   TEMP WIND        PRES    VSBY
                                AIR  DIR/SP/G
                 (UTC)          (F)  (DEG/KT/KT) (MB)    (MI)
HARRISON CRIB    2240            76  310/ 19/ 21   N/A
BURNHAM HARBOR   NOT AVBL
CALUMET HARBOR   2248            78  320/ 10/ 15 1012.6R
BURNS HARBOR     2240            74  360/ 14/ 18 1013.5R
MICHIGAN CITY    2240            72  360/ 18/ 20   N/A
$$

ABBREVIATIONS USED IN REMARKS
   TC - TEMPERATURE IN CELSIUS
  WCI - WIND CHILL INDEX
   HX - HEAT INDEX
  VSB - VISIBILITY
$$




USA.gov is the U.S. government's official web portal to all federal, state and local government web resources and services.